TimeEST,TemperatureF,Dew PointF,Humidity,Sea Level PressureIn,VisibilityMPH,Wind Direction,Wind SpeedMPH,Gust SpeedMPH,PrecipitationIn,Events,Conditions,WindDirDegrees,DateUTC
12:11 AM,30.2,26.6,86,29.65,8.0,NW,10.4,17.3,0.00,,Overcast,310,2013-03-01 05:11:00
12:56 AM,30.0,26.1,85,29.73,9.0,WNW,9.2,-,0.00,,Overcast,300,2013-03-01 05:56:00
1:38 AM,30.2,24.8,80,29.66,10.0,NW,11.5,-,N/A,,Overcast,320,2013-03-01 06:38:00
1:56 AM,30.0,25.0,82,29.73,10.0,NNW,10.4,-,N/A,,Overcast,330,2013-03-01 06:56:00
2:36 AM,28.4,24.8,86,29.68,10.0,NW,12.7,-,N/A,,Overcast,320,2013-03-01 07:36:00
2:56 AM,28.9,25.0,85,29.74,10.0,NW,12.7,-,N/A,,Overcast,310,2013-03-01 07:56:00
4:56 AM,28.0,24.1,85,29.78,2.5,NW,13.8,-,0.00,Snow,Light Snow,320,2013-03-01 09:56:00
5:11 AM,26.6,23.0,86,29.71,5.0,NW,13.8,-,0.00,Snow,Light Snow,320,2013-03-01 10:11:00
6:09 AM,26.6,21.2,80,29.72,1.8,NW,11.5,-,0.00,Snow,Light Snow,320,2013-03-01 11:09:00
6:12 AM,26.6,21.2,80,29.72,2.0,NW,11.5,-,0.00,Snow,Light Snow,320,2013-03-01 11:12:00
6:19 AM,26.6,21.2,80,29.72,3.0,NNW,11.5,-,0.00,Snow,Light Snow,330,2013-03-01 11:19:00
6:26 AM,26.6,21.2,80,29.72,5.0,NW,11.5,-,0.00,Snow,Light Snow,320,2013-03-01 11:26:00
7:10 AM,26.6,21.2,80,29.73,7.0,NW,12.7,20.7,0.00,Snow,Light Snow,320,2013-03-01 12:10:00
7:56 AM,26.1,21.9,84,29.82,10.0,NNW,13.8,-,0.00,,Overcast,330,2013-03-01 12:56:00
8:56 AM,26.1,21.9,84,29.84,8.0,NNW,9.2,18.4,0.00,Snow,Light Snow,330,2013-03-01 13:56:00
10:56 AM,27.0,21.9,81,29.86,9.0,NNW,10.4,-,0.00,,Overcast,330,2013-03-01 15:56:00
11:56 AM,27.0,21.0,78,29.86,10.0,NW,11.5,-,N/A,,Overcast,310,2013-03-01 16:56:00
12:56 PM,27.0,21.0,78,29.86,10.0,NNW,10.4,-,0.00,,Overcast,340,2013-03-01 17:56:00
1:56 PM,27.0,21.0,78,29.85,10.0,NNW,12.7,-,0.00,,Overcast,330,2013-03-01 18:56:00
2:12 PM,26.6,21.2,80,29.78,10.0,NNW,11.5,-,N/A,,Overcast,330,2013-03-01 19:12:00
2:44 PM,26.6,19.4,74,29.78,10.0,NNW,10.4,-,N/A,,Overcast,330,2013-03-01 19:44:00
3:56 PM,26.1,19.0,75,29.87,10.0,NW,13.8,18.4,N/A,,Overcast,320,2013-03-01 20:56:00
5:56 PM,24.1,17.1,75,29.90,10.0,NNW,12.7,18.4,N/A,,Overcast,330,2013-03-01 22:56:00
6:56 PM,23.0,17.1,78,29.92,10.0,NW,13.8,17.3,N/A,,Overcast,310,2013-03-01 23:56:00
7:56 PM,21.9,16.0,78,29.93,10.0,NW,8.1,-,N/A,,Overcast,310,2013-03-02 00:56:00
8:22 PM,21.2,17.6,86,29.84,10.0,NW,10.4,-,N/A,,Overcast,310,2013-03-02 01:22:00
8:56 PM,21.9,17.1,82,29.93,10.0,NNW,10.4,-,N/A,,Overcast,330,2013-03-02 01:56:00
9:56 PM,21.0,16.0,81,29.94,5.0,NW,6.9,-,0.00,Snow,Light Snow,320,2013-03-02 02:56:00
10:26 PM,21.2,15.8,80,29.85,2.5,NW,6.9,-,0.00,Snow,Light Snow,310,2013-03-02 03:26:00
10:56 PM,21.0,16.0,81,29.93,2.5,WNW,9.2,-,0.00,Snow,Light Snow,300,2013-03-02 03:56:00
11:56 PM,21.0,16.0,81,29.92,6.0,WNW,9.2,-,0.00,Snow,Light Snow,300,2013-03-02 04:56:00